Dewpoint
51 52 52 53 52 54 54 54 56 57 58 58 58 58 59 59 53 51 53 54 58 61 64 65 66 67 68 70 69 68 69 69 68
50 49 51 51 52 54 54 54 54 55 57 57 58 58 59 55 53 51 51 56 56 60 62 64 66 66 67 69 70 69 68 68 68
49 49 49 50 52 52 52 52 53 53 54 56 57 56 56 51 44 51 49 53 55 58 60 61 64 66 66 68 69 69 69 69 69
47 48 49 49 49 50 51 53 51 53 52 53 55 53 53 47 38 39 47 52 56 57 59 60 62 64 66 67 69 70 69 69 71
47 47 47 48 49 49 49 50 50 50 51 50 50 49 50 37 37 39 42 52 56 57 58 58 60 62 63 67 68 70 69 70 71
41 45 46 47 47 47 48 47 48 49 48 47 47 47 38 37 37 38 45 51 54 55 56 57 58 59 62 66 67 70 70 70 71
38 41 44 44 44 45 46 46 46 44 40 40 44 39 38 38 37 37 46 51 53 53 55 56 56 57 60 64 67 68 70 70 70
36 38 38 37 40 39 40 40 39 40 41 41 40 40 39 38 38 39 47 49 51 52 53 54 54 56 60 65 65 67 69 71 70
34 36 37 37 38 38 39 38 39 40 40 40 40 40 38 38 38 39 46 48 50 51 53 52 53 56 60 64 62 64 67 70 70
33 34 36 36 37 38 38 39 38 38 34 38 40 40 39 38 38 39 45 47 48 50 51 52 52 54 58 63 60 61 65 68 68
32 33 34 36 37 38 38 38 38 38 39 39 39 39 40 39 39 39 39 45 47 49 50 51 51 54 58 62 58 59 64 67 69
31 32 34 36 37 37 38 38 38 37 37 38 38 37 38 39 38 39 38 39 44 47 48 51 51 53 60 60 57 59 63 66 67
32 32 34 35 36 37 37 38 38 36 36 37 38 38 39 39 38 38 38 38 38 41 46 48 51 52 58 57 58 60 62 61 62
32 33 34 35 36 37 38 38 38 37 35 37 38 38 38 39 39 38 38 39 39 38 41 46 48 52 56 57 59 59 59 58 57
33 34 34 36 38 38 39 40 38 37 37 38 37 38 38 39 39 38 37 38 38 38 37 38 41 50 55 53 57 59 56 54 55
34 35 37 39 39 39 40 39 38 36 38 38 38 35 37 36 36 37 37 38 37 36 37 37 42 45 52 50 53 58 52 50 52
34 35 41 40 40 40 38 39 38 38 40 38 38 34 33 36 38 40 39 36 36 36 35 35 41 45 46 49 54 54 49 51 52
34 37 40 42 41 40 40 39 39 38 40 41 39 34 34 35 40 39 39 40 37 36 36 35 42 42 44 49 52 53 46 44 45
33 36 40 39 41 41 41 41 41 40 39 40 42 41 39 36 35 39 39 40 38 38 38 37 37 40 42 46 49 52 49 42 41
33 35 38 38 38 40 41 41 42 42 40 40 40 39 39 38 37 35 37 39 39 38 39 40 41 40 40 41 45 52 51 47 38
Lifted_Index
16 15 15 15 15 14 14 13 13 12 11 11 11 11 10 10 11 11 10 9 7 6 6 5 4 3 2 1 1 1 2 2 2
15 15 15 15 15 15 14 14 14 13 12 11 11 11 11 11 12 12 11 10 8 7 6 5 4 3 2 1 1 1 1 2 2
15 15 14 14 14 14 15 15 15 15 14 13 13 13 13 13 13 12 12 11 10 8 7 6 5 4 3 1 0 0 1 1 1
14 14 13 13 13 13 14 14 15 15 15 15 15 15 15 15 14 13 13 12 11 9 8 7 6 5 3 2 1 0 0 0 0
15 14 14 13 13 13 13 13 14 15 16 17 17 18 18 17 16 14 13 13 12 11 10 9 8 6 4 3 1 -0 -0 -0 -1
16 15 15 15 14 14 14 14 14 15 16 17 18 19 19 18 17 16 15 14 13 12 11 10 9 7 5 3 1 -0 -1 -1 -1
17 17 17 17 16 16 16 16 16 16 17 17 18 18 19 19 18 17 16 15 14 13 12 12 10 8 6 4 2 0 -1 -1 -1
18 18 18 18 18 17 17 17 17 17 18 18 17 17 18 18 18 17 16 16 15 14 13 12 11 9 6 4 3 1 -0 -1 -2
17 17 17 17 17 17 17 17 17 17 17 17 17 17 17 17 17 17 16 16 16 15 14 13 12 10 7 5 4 3 1 -1 -1
16 16 16 15 15 15 15 16 16 16 16 17 16 16 17 17 17 16 16 16 15 14 14 13 12 10 7 5 5 4 2 0 -1
16 15 14 14 14 14 14 14 14 15 15 15 15 15 16 16 16 16 16 15 14 14 13 12 11 9 7 5 5 4 2 0 -0
15 15 14 13 12 12 13 13 13 14 14 14 14 14 15 15 15 16 16 15 14 14 13 12 11 8 6 5 5 4 2 1 0
15 14 13 12 12 11 12 12 12 13 13 14 13 13 13 14 14 15 15 15 14 13 13 12 10 7 5 5 4 3 2 1 1
14 13 12 11 11 11 10 10 11 11 12 12 12 12 12 12 13 13 14 14 13 13 13 12 10 7 5 4 3 2 3 3 3
14 13 12 11 10 10 9 9 9 9 9 9 9 10 10 11 11 11 12 12 12 12 12 12 11 8 5 4 3 2 3 4 5
13 12 11 11 10 10 9 9 8 8 7 7 7 8 9 9 9 9 10 10 11 11 11 11 10 8 5 4 3 3 4 5 6
13 12 11 11 10 9 8 8 8 7 6 6 6 6 7 8 8 8 8 9 9 10 10 10 9 7 6 4 4 4 5 6 6
13 12 11 10 10 9 8 7 7 7 6 5 5 5 6 6 7 7 7 7 7 8 9 9 8 6 5 4 4 5 6 7 7
13 12 11 10 9 8 8 7 7 6 6 5 5 5 5 6 6 6 5 5 6 7 8 8 7 6 5 4 4 5 7 8 9
13 12 11 10 9 8 8 7 6 6 6 5 5 5 5 5 5 5 5 5 5 6 7 7 6 5 5 5 5 5 7 9 10